Natchitoches, LA

7:02 AM CST on December 17, 2017 (GMT -0600)
Natchitoches Regional

Weather History for KIER - August, 2013

Change the Weather History Date:

Friday, August 9, 2013

  Actual Average Record
Temperature  
Mean Temperature 84 °F -  
Max Temperature 97 °F 92 °F 106 °F (1962)
Min Temperature 72 °F 70 °F 58 °F (1989)
Cooling Degree Days 20    
Growing Degree Days 34 (Base 50)    
Moisture  
Dew Point 73 °F    
Average Humidity 69    
Maximum Humidity 93    
Minimum Humidity 43    
Precipitation  
Precipitation 0.00 in - - ()
Sea Level Pressure  
Sea Level Pressure 29.94 in    
Wind  
Wind Speed 3 mph (SE)    
Max Wind Speed 10 mph    
Max Gust Speed -    
Visibility 8 miles    
Events      
Averages and records for this station are not official NWS values.
T = Trace of Precipitation, MM = Missing Value Source: NWS Daily Summary

Daily Weather History Graph

Daily Weather History Graph

Search for Another Location

Airport or City:

Trip Planner

Search our weather history database for the weather conditions in past years. The results will help you decide how hot, cold, wet, or windy it might be!

Date:

Astronomy

Aug. 09, 2013 Rise Set
Actual Time 6:33 AM CDT 8:01 PM CDT
Civil Twilight 6:07 AM CDT 8:27 PM CDT
Nautical Twilight 5:36 AM CDT 8:58 PM CDT
Astronomical Twilight 5:03 AM CDT 9:31 PM CDT
Moon 9:06 AM CDT (8/9) 9:27 PM CDT (8/9)
Length of Visible Light 14h 19m
Length of Day
13h 27m
Waxing Crescent, 8% of the Moon is Illuminated
Aug 9
Waxing Crescent
Aug 14
First Quarter
Aug 20
Full
Aug 28
Last Quarter
Sep 5
New

Hourly Weather History & Observations

Time (CDT) Temp. Heat Index Dew Point Humidity Pressure Visibility Wind Dir Wind Speed Gust Speed Precip Events Conditions
12:15 AM 77.4 °F - 70.2 °F 78% 29.93 in 7.0 mi South 3.5 mph - N/A   Clear
12:35 AM 75.9 °F - 71.1 °F 85% 29.93 in 7.0 mi Calm Calm - N/A   Clear
12:55 AM 76.1 °F - 70.3 °F 82% 29.93 in 7.0 mi SSE 3.5 mph - N/A   Clear
1:15 AM 75.4 °F - 70.7 °F 85% 29.93 in 7.0 mi Calm Calm - N/A   Clear
1:35 AM 76.8 °F - 70.7 °F 81% 29.93 in 7.0 mi Calm Calm - N/A   Clear
1:55 AM 75.9 °F - 70.7 °F 84% 29.93 in 7.0 mi Calm Calm - N/A   Clear
2:15 AM 75.4 °F - 70.3 °F 84% 29.93 in 7.0 mi Calm Calm - N/A   Clear
2:35 AM 73.6 °F - 70.5 °F 90% 29.92 in 7.0 mi South 5.8 mph - N/A   Clear
2:55 AM 75.0 °F - 70.9 °F 87% 29.92 in 7.0 mi Calm Calm - N/A   Clear
3:15 AM 75.0 °F - 70.7 °F 86% 29.93 in 7.0 mi South 3.5 mph - N/A   Clear
3:35 AM 74.5 °F - 70.7 °F 88% 29.93 in 7.0 mi SSE 3.5 mph - N/A   Clear
3:55 AM 74.3 °F - 71.1 °F 90% 29.92 in 7.0 mi SSE 3.5 mph - N/A   Clear
4:15 AM 76.1 °F - 71.4 °F 85% 29.92 in 7.0 mi South 3.5 mph - N/A   Clear
4:35 AM 75.2 °F - 71.1 °F 87% 29.92 in 7.0 mi Calm Calm - N/A   Clear
4:55 AM 73.9 °F - 70.9 °F 90% 29.93 in 7.0 mi SSE 3.5 mph - N/A   Clear
5:15 AM 73.8 °F - 70.9 °F 91% 29.92 in 7.0 mi Calm Calm - N/A   Clear
5:35 AM 74.1 °F - 70.9 °F 90% 29.93 in 7.0 mi South 4.6 mph - N/A   Clear
5:55 AM 73.0 °F - 70.9 °F 93% 29.93 in 7.0 mi Calm Calm - N/A   Clear
6:15 AM 72.7 °F - 70.7 °F 93% 29.94 in 7.0 mi ENE 4.6 mph - N/A   Clear
6:35 AM 73.2 °F - 70.9 °F 92% 29.95 in 5.0 mi Calm Calm - N/A   Clear
6:55 AM 73.2 °F - 70.9 °F 92% 29.96 in 5.0 mi Calm Calm - N/A   Clear
7:15 AM 73.4 °F - 71.4 °F 93% 29.96 in 5.0 mi Calm Calm - N/A   Clear
7:35 AM 75.2 °F - 71.8 °F 89% 29.96 in 7.0 mi Calm Calm - N/A   Clear
7:55 AM 76.8 °F - 72.3 °F 86% 29.96 in 5.0 mi Calm Calm - N/A   Haze
8:15 AM 78.1 °F - 72.7 °F 83% 29.96 in 7.0 mi ENE 3.5 mph - N/A   Clear
8:35 AM 79.7 °F - 73.4 °F 81% 29.97 in 7.0 mi Calm Calm - N/A   Clear
8:55 AM 81.0 °F 86.2 °F 73.8 °F 79% 29.97 in 7.0 mi SSE 3.5 mph - N/A   Clear
9:15 AM 82.8 °F 89.0 °F 73.6 °F 74% 29.97 in 7.0 mi Calm Calm - N/A   Clear
9:35 AM 83.7 °F 91.0 °F 74.5 °F 74% 29.97 in 7.0 mi North 5.8 mph - N/A   Clear
9:55 AM 84.9 °F 92.9 °F 74.7 °F 71% 29.98 in 7.0 mi NE 3.5 mph - N/A   Clear
10:15 AM 86.2 °F 94.6 °F 74.7 °F 68% 29.98 in 7.0 mi Calm Calm - N/A   Clear
10:35 AM 88.3 °F 96.9 °F 73.9 °F 62% 29.98 in 7.0 mi South 3.5 mph - N/A   Clear
10:55 AM 89.6 °F 98.7 °F 74.1 °F 60% 29.98 in 7.0 mi WSW 5.8 mph - N/A   Clear
11:15 AM 90.1 °F 99.4 °F 73.9 °F 59% 29.98 in 7.0 mi Calm Calm - N/A   Clear
11:35 AM 91.4 °F 102.5 °F 75.0 °F 59% 29.98 in 10.0 mi SSE 4.6 mph - N/A   Clear
11:55 AM 91.9 °F 101.9 °F 74.3 °F 56% 29.97 in 10.0 mi South 3.5 mph - N/A   Clear
12:15 PM 92.3 °F 102.8 °F 74.3 °F 56% 29.97 in 10.0 mi Calm Calm - N/A   Clear
12:35 PM 92.8 °F 102.8 °F 74.1 °F 54% 29.97 in 10.0 mi South 3.5 mph - N/A   Scattered Clouds
12:55 PM 94.3 °F 105.6 °F 74.8 °F 53% 29.97 in 10.0 mi ESE 4.6 mph - N/A   Scattered Clouds
1:15 PM 94.6 °F 104.4 °F 73.2 °F 50% 29.96 in 10.0 mi SE 5.8 mph - N/A   Clear
1:35 PM 95.5 °F 107.3 °F 74.7 °F 51% 29.95 in 10.0 mi East 3.5 mph - N/A   Clear
1:55 PM 95.2 °F 105.6 °F 73.6 °F 50% 29.95 in 10.0 mi Calm Calm - N/A   Clear
2:15 PM 96.8 °F 109.6 °F 75.2 °F 50% 29.94 in 10.0 mi Calm Calm - N/A   Scattered Clouds
2:35 PM 96.4 °F 109.5 °F 75.4 °F 51% 29.93 in 10.0 mi NE 4.6 mph - N/A   Scattered Clouds
2:55 PM 96.1 °F 106.3 °F 73.8 °F 48% 29.93 in 10.0 mi ENE 5.8 mph - N/A   Clear
3:15 PM 97.2 °F 108.2 °F 73.9 °F 47% 29.92 in 10.0 mi ESE 5.8 mph - N/A   Clear
3:35 PM 96.8 °F 106.6 °F 73.0 °F 46% 29.91 in 10.0 mi ENE 6.9 mph - N/A   Clear
3:55 PM 97.2 °F 106.6 °F 72.7 °F 45% 29.90 in 10.0 mi Calm Calm - N/A   Clear
4:15 PM 97.2 °F 106.6 °F 72.7 °F 45% 29.90 in 10.0 mi North 3.5 mph - N/A   Clear
4:35 PM 97.7 °F 107.1 °F 72.7 °F 44% 29.90 in 10.0 mi SE 3.5 mph - N/A   Clear
4:55 PM 97.7 °F 106.4 °F 71.8 °F 43% 29.90 in 10.0 mi East 6.9 mph - N/A   Clear
5:15 PM 97.2 °F 107.4 °F 73.0 °F 46% 29.90 in 10.0 mi East 4.6 mph - N/A   Clear
5:35 PM 96.8 °F 104.4 °F 71.2 °F 43% 29.90 in 10.0 mi SSE 4.6 mph - N/A   Clear
5:55 PM 95.5 °F 104.4 °F 72.5 °F 47% 29.90 in 10.0 mi ENE 4.6 mph - N/A   Clear
6:15 PM 95.4 °F 105.4 °F 73.2 °F 49% 29.90 in 10.0 mi East 3.5 mph - N/A   Clear
6:35 PM 95.4 °F 105.4 °F 73.4 °F 49% 29.90 in 10.0 mi ESE 4.6 mph - N/A   Scattered Clouds
6:55 PM 94.3 °F 104.2 °F 73.8 °F 51% 29.90 in 10.0 mi East 5.8 mph - N/A   Clear
7:15 PM 93.6 °F 103.2 °F 73.8 °F 52% 29.91 in 10.0 mi ESE 5.8 mph - N/A   Clear
7:35 PM 91.8 °F 102.8 °F 75.2 °F 58% 29.91 in 10.0 mi ESE 4.6 mph - N/A   Clear
7:55 PM 90.0 °F 100.7 °F 75.2 °F 62% 29.93 in 10.0 mi ESE 4.6 mph - N/A   Clear
8:15 PM 88.5 °F 98.8 °F 75.2 °F 65% 29.93 in 10.0 mi Calm Calm - N/A   Clear
8:35 PM 88.2 °F 98.0 °F 75.2 °F 65% 29.94 in 10.0 mi East 6.9 mph - N/A   Clear
8:55 PM 87.1 °F 96.8 °F 75.2 °F 68% 29.95 in 10.0 mi ESE 6.9 mph - N/A   Clear
9:15 PM 86.4 °F 95.5 °F 75.0 °F 69% 29.96 in 10.0 mi ESE 8.1 mph - N/A   Clear
9:35 PM 85.3 °F 94.6 °F 75.6 °F 73% 29.97 in 10.0 mi SE 10.4 mph - N/A   Clear
9:55 PM 84.9 °F 93.7 °F 75.2 °F 73% 29.98 in 10.0 mi South 8.1 mph - N/A   Clear
10:15 PM 83.3 °F 90.8 °F 75.2 °F 76% 29.99 in 10.0 mi SSE 8.1 mph - N/A   Clear
10:35 PM 83.3 °F 90.2 °F 74.3 °F 74% 30.00 in 10.0 mi South 6.9 mph - N/A   Clear
10:55 PM 81.9 °F 87.7 °F 73.9 °F 77% 30.00 in 10.0 mi SSE 4.6 mph - N/A   Clear
11:15 PM 81.1 °F 86.6 °F 73.9 °F 79% 30.00 in 10.0 mi South 4.6 mph - N/A   Clear
11:35 PM 80.1 °F 84.5 °F 73.8 °F 81% 30.00 in 10.0 mi SSE 4.6 mph - N/A   Clear
11:55 PM 80.1 °F 84.5 °F 73.8 °F 81% 30.00 in 10.0 mi SSE 3.5 mph - N/A   Clear